TimeCST,TemperatureF,Dew PointF,Humidity,Sea Level PressureIn,VisibilityMPH,Wind Direction,Wind SpeedMPH,Gust SpeedMPH,PrecipitationIn,Events,Conditions,WindDirDegrees,DateUTC
12:15 AM,-9.4,-16.6,71,30.41,10.0,NNE,6.9,-,N/A,,Overcast,20,2014-01-01 06:15:00
12:36 AM,-9.6,-16.8,71,30.41,10.0,NNE,5.8,-,N/A,,Overcast,20,2014-01-01 06:36:00
12:56 AM,-9.8,-17.3,69,30.40,10.0,NNE,3.5,-,N/A,,Overcast,30,2014-01-01 06:56:00
1:15 AM,-9.6,-16.6,71,30.40,10.0,NNE,5.8,-,N/A,,Overcast,20,2014-01-01 07:15:00
1:36 AM,-9.6,-16.8,71,30.39,10.0,NNE,5.8,-,N/A,,Overcast,30,2014-01-01 07:36:00
1:56 AM,-9.4,-16.6,71,30.39,10.0,NNE,5.8,-,N/A,,Overcast,30,2014-01-01 07:56:00
2:15 AM,-9.0,-16.6,69,30.40,10.0,NNE,4.6,-,N/A,,Overcast,20,2014-01-01 08:15:00
2:36 AM,-8.7,-16.4,69,30.41,10.0,NE,4.6,-,N/A,,Overcast,40,2014-01-01 08:36:00
2:56 AM,-8.7,-17.5,65,30.40,10.0,NE,8.1,-,N/A,,Overcast,50,2014-01-01 08:56:00
3:15 AM,-8.7,-17.0,67,30.39,10.0,NE,10.4,-,N/A,,Overcast,40,2014-01-01 09:15:00
3:36 AM,-8.5,-16.6,68,30.40,10.0,NNE,8.1,-,N/A,,Overcast,30,2014-01-01 09:36:00
3:56 AM,-8.5,-16.6,68,30.39,10.0,NE,6.9,-,N/A,,Overcast,50,2014-01-01 09:56:00
4:15 AM,-8.5,-16.6,68,30.39,10.0,ENE,8.1,-,N/A,,Overcast,60,2014-01-01 10:15:00
4:36 AM,-8.1,-16.2,68,30.39,10.0,NNE,5.8,-,N/A,,Overcast,30,2014-01-01 10:36:00
4:56 AM,-8.1,-16.6,67,30.39,10.0,NE,6.9,-,N/A,,Overcast,50,2014-01-01 10:56:00
5:15 AM,-8.0,-16.2,67,30.40,10.0,NNE,6.9,-,N/A,,Overcast,30,2014-01-01 11:15:00
5:36 AM,-7.8,-15.7,68,30.41,10.0,NNE,6.9,-,N/A,,Overcast,20,2014-01-01 11:36:00
5:55 AM,-7.6,-15.5,68,30.41,10.0,NNE,5.8,-,N/A,,Overcast,20,2014-01-01 11:55:00
6:16 AM,-7.8,-15.9,68,30.41,10.0,North,4.6,-,N/A,,Overcast,360,2014-01-01 12:16:00
6:36 AM,-7.8,-15.9,68,30.41,10.0,NNE,6.9,-,N/A,,Overcast,20,2014-01-01 12:36:00
6:56 AM,-7.6,-15.7,68,30.41,10.0,NNE,8.1,-,N/A,,Overcast,30,2014-01-01 12:56:00
7:16 AM,-7.6,-15.9,67,30.41,10.0,NE,6.9,-,N/A,,Overcast,40,2014-01-01 13:16:00
7:36 AM,-7.6,-15.9,67,30.42,10.0,NNE,6.9,-,N/A,,Overcast,30,2014-01-01 13:36:00
7:56 AM,-7.2,-15.5,67,30.44,10.0,NNE,8.1,-,N/A,,Overcast,30,2014-01-01 13:56:00
8:16 AM,-7.1,-15.3,67,30.45,10.0,NNE,6.9,-,N/A,,Overcast,30,2014-01-01 14:16:00
8:36 AM,-6.9,-15.0,68,30.46,10.0,NNE,6.9,-,N/A,,Overcast,30,2014-01-01 14:36:00
8:56 AM,-6.7,-14.6,68,30.47,10.0,North,6.9,-,N/A,,Overcast,10,2014-01-01 14:56:00
9:16 AM,-6.2,-14.6,67,30.47,10.0,North,5.8,-,N/A,,Overcast,10,2014-01-01 15:16:00
9:35 AM,-6.0,-14.3,67,30.46,10.0,NNE,8.1,-,N/A,,Overcast,30,2014-01-01 15:35:00
9:56 AM,-5.8,-14.1,67,30.48,10.0,NNE,4.6,-,N/A,,Overcast,20,2014-01-01 15:56:00
10:16 AM,-5.3,-13.5,67,30.48,10.0,NE,4.6,-,N/A,,Overcast,40,2014-01-01 16:16:00
10:35 AM,-4.5,-13.0,67,30.48,10.0,NNE,5.8,-,N/A,,Overcast,30,2014-01-01 16:35:00
10:56 AM,-4.5,-13.0,67,30.48,10.0,NNE,6.9,-,N/A,,Overcast,30,2014-01-01 16:56:00
11:16 AM,-4.0,-12.5,67,30.47,10.0,NNE,6.9,-,N/A,,Overcast,30,2014-01-01 17:16:00
11:36 AM,-4.0,-12.3,68,30.46,10.0,NNE,5.8,-,N/A,,Overcast,30,2014-01-01 17:36:00
11:56 AM,-3.5,-12.1,67,30.45,10.0,NNE,4.6,-,N/A,,Overcast,20,2014-01-01 17:56:00
12:15 PM,-2.9,-11.4,67,30.44,10.0,North,4.6,-,N/A,,Overcast,10,2014-01-01 18:15:00
12:36 PM,-2.6,-11.4,66,30.44,10.0,North,6.9,-,N/A,,Overcast,10,2014-01-01 18:36:00
12:55 PM,-2.4,-11.4,66,30.43,10.0,North,5.8,-,N/A,,Overcast,10,2014-01-01 18:55:00
1:16 PM,-1.8,-10.7,66,30.43,10.0,NNE,5.8,-,N/A,,Overcast,30,2014-01-01 19:16:00
1:36 PM,-1.7,-10.7,66,30.42,10.0,North,3.5,-,N/A,,Overcast,10,2014-01-01 19:36:00
1:55 PM,-1.5,-10.7,65,30.42,10.0,NNE,4.6,-,N/A,,Overcast,20,2014-01-01 19:55:00
2:16 PM,-1.1,-10.5,65,30.42,10.0,North,6.9,-,N/A,,Overcast,350,2014-01-01 20:16:00
2:36 PM,-0.6,-10.3,64,30.41,10.0,North,3.5,-,N/A,,Overcast,10,2014-01-01 20:36:00
2:55 PM,-0.4,-9.8,65,30.41,10.0,NNE,3.5,-,N/A,,Overcast,20,2014-01-01 20:55:00
3:16 PM,-0.4,-10.3,63,30.41,10.0,North,4.6,-,N/A,,Overcast,10,2014-01-01 21:16:00
3:36 PM,-0.0,-9.6,64,30.42,10.0,North,3.5,-,N/A,,Overcast,360,2014-01-01 21:36:00
3:55 PM,-0.4,-10.3,63,30.41,10.0,NNE,4.6,-,N/A,,Overcast,20,2014-01-01 21:55:00
4:16 PM,-0.4,-10.3,63,30.42,10.0,NNE,4.6,-,N/A,,Overcast,30,2014-01-01 22:16:00
4:36 PM,-0.4,-10.1,64,30.43,10.0,North,4.6,-,N/A,,Overcast,360,2014-01-01 22:36:00
4:55 PM,-0.6,-10.1,64,30.43,10.0,North,4.6,-,N/A,,Overcast,360,2014-01-01 22:55:00
5:16 PM,-0.8,-9.9,65,30.44,10.0,North,4.6,-,N/A,,Overcast,350,2014-01-01 23:16:00
5:36 PM,-0.9,-10.3,65,30.44,10.0,North,3.5,-,N/A,,Overcast,360,2014-01-01 23:36:00
5:55 PM,-1.3,-10.3,66,30.45,10.0,NNW,4.6,-,N/A,,Overcast,340,2014-01-01 23:55:00
6:16 PM,-1.3,-10.3,66,30.45,10.0,North,3.5,-,N/A,,Overcast,360,2014-01-02 00:16:00
6:35 PM,-1.5,-10.5,66,30.46,10.0,North,3.5,-,N/A,,Overcast,350,2014-01-02 00:35:00
6:56 PM,-1.5,-10.3,66,30.46,10.0,North,4.6,-,N/A,,Overcast,360,2014-01-02 00:56:00
7:16 PM,-1.7,-10.5,66,30.46,10.0,North,3.5,-,N/A,,Overcast,10,2014-01-02 01:16:00
7:35 PM,-1.7,-10.5,66,30.46,10.0,North,3.5,-,N/A,,Overcast,10,2014-01-02 01:35:00
7:56 PM,-1.7,-10.5,66,30.45,10.0,North,4.6,-,N/A,,Overcast,10,2014-01-02 01:56:00
8:16 PM,-1.7,-10.3,67,30.45,10.0,North,3.5,-,N/A,,Overcast,10,2014-01-02 02:16:00
8:35 PM,-1.7,-10.3,67,30.44,10.0,North,4.6,-,N/A,,Overcast,10,2014-01-02 02:35:00
8:56 PM,-1.7,-10.3,67,30.44,10.0,North,3.5,-,N/A,,Overcast,10,2014-01-02 02:56:00
9:16 PM,-1.7,-10.3,67,30.44,10.0,North,3.5,-,N/A,,Overcast,10,2014-01-02 03:16:00
9:35 PM,-1.7,-10.3,67,30.43,10.0,North,3.5,-,N/A,,Overcast,10,2014-01-02 03:35:00
9:56 PM,-1.7,-10.3,67,30.43,10.0,Calm,Calm,-,N/A,,Overcast,0,2014-01-02 03:56:00
10:16 PM,-1.7,-10.3,67,30.44,10.0,Calm,Calm,-,N/A,,Overcast,0,2014-01-02 04:16:00
10:35 PM,-1.8,-10.3,67,30.44,10.0,Calm,Calm,-,N/A,,Overcast,0,2014-01-02 04:35:00
10:56 PM,-1.8,-10.5,67,30.44,10.0,Calm,Calm,-,N/A,,Overcast,0,2014-01-02 04:56:00
11:16 PM,-2.2,-10.5,68,30.44,10.0,North,3.5,-,N/A,,Overcast,360,2014-01-02 05:16:00
11:35 PM,-2.2,-10.3,68,30.43,10.0,North,3.5,-,N/A,,Overcast,10,2014-01-02 05:35:00
11:56 PM,-2.2,-10.5,68,30.44,10.0,North,3.5,-,N/A,,Overcast,350,2014-01-02 05:56:00